Corvallis, OR

2:41 PM PST on January 22, 2018 (GMT -0800)
Corvallis Municipal

Weather History for KCVO - November, 2012

Change the Weather History Date:

Sunday, November 18, 2012

  Actual Average Record
Temperature  
Mean Temperature 46 °F -  
Max Temperature 51 °F 51 °F 59 °F (2003)
Min Temperature 42 °F 38 °F 21 °F (2000)
Degree Days  
Heating Degree Days 18    
Moisture  
Dew Point 44 °F    
Average Humidity 88    
Maximum Humidity 100    
Minimum Humidity 71    
Precipitation  
Precipitation 0.49 in - - ()
Sea Level Pressure  
Sea Level Pressure 29.79 in    
Wind  
Wind Speed 12 mph (SSE)    
Max Wind Speed 16 mph    
Max Gust Speed 22 mph    
Visibility 10 miles    
Events      
Averages and records for this station are not official NWS values.
T = Trace of Precipitation, MM = Missing Value Source: NWS Daily Summary

Daily Weather History Graph

Daily Weather History Graph

Search for Another Location

Airport or City:

Trip Planner

Search our weather history database for the weather conditions in past years. The results will help you decide how hot, cold, wet, or windy it might be!

Date:

Astronomy

Nov. 18, 2012 Rise Set
Actual Time 7:14 AM PST 4:42 PM PST
Civil Twilight 6:42 AM PST 5:14 PM PST
Nautical Twilight 6:06 AM PST 5:49 PM PST
Astronomical Twilight 5:32 AM PST 6:24 PM PST
Moon 11:42 AM PST (11/18) 10:12 PM PST (11/18)
Length of Visible Light 10h 31m
Length of Day
9h 28m
Waxing Crescent, 31% of the Moon is Illuminated
Nov 18
Waxing Crescent
Nov 20
First Quarter
Nov 28
Full
Dec 6
Last Quarter
Dec 13
New

Hourly Weather History & Observations

Time (PST) Temp. Windchill Dew Point Humidity Pressure Visibility Wind Dir Wind Speed Gust Speed Precip Events Conditions
12:15 AM 44.6 °F 37.8 °F 39.2 °F 81% 29.85 in 10.0 mi SSE 15.0 mph - 0.01 in   Overcast
12:35 AM 42.8 °F 36.6 °F 41.0 °F 93% 29.85 in 10.0 mi SSE 11.5 mph - 0.02 in   Overcast
12:55 AM 42.8 °F 35.4 °F 39.2 °F 87% 29.84 in 10.0 mi SE 15.0 mph - 0.02 in   Overcast
1:15 AM 42.8 °F 36.2 °F 39.2 °F 87% 29.84 in 10.0 mi SE 12.7 mph - N/A   Scattered Clouds
1:35 AM 42.8 °F 37.0 °F 39.2 °F 87% 29.86 in 10.0 mi SSE 10.4 mph - N/A   Mostly Cloudy
1:55 AM 42.8 °F 37.0 °F 41.0 °F 93% 29.86 in 10.0 mi SSE 10.4 mph - N/A   Overcast
2:15 AM 42.8 °F 38.0 °F 41.0 °F 93% 29.86 in 10.0 mi South 8.1 mph - 0.01 in   Overcast
2:35 AM 42.8 °F 38.6 °F 41.0 °F 93% 29.87 in 10.0 mi South 6.9 mph - 0.01 in   Overcast
2:55 AM 42.8 °F 38.6 °F 41.0 °F 93% 29.88 in 10.0 mi South 6.9 mph - 0.02 in   Overcast
3:15 AM 42.8 °F 38.6 °F 41.0 °F 93% 29.87 in 10.0 mi SE 6.9 mph - 0.01 in   Overcast
3:35 AM 44.6 °F 38.4 °F 41.0 °F 87% 29.87 in 10.0 mi SE 12.7 mph - 0.03 in   Overcast
3:55 AM 44.6 °F 42.2 °F 42.8 °F 93% 29.86 in 10.0 mi South 4.6 mph - 0.04 in   Overcast
4:15 AM 42.8 °F 39.3 °F 42.8 °F 100% 29.86 in 10.0 mi SSE 5.8 mph - 0.01 in   Overcast
4:35 AM 44.6 °F 38.8 °F 41.0 °F 87% 29.86 in 10.0 mi SSE 11.5 mph - 0.01 in   Overcast
4:55 AM 44.6 °F 38.1 °F 41.0 °F 87% 29.86 in 10.0 mi SSE 13.8 mph - 0.01 in   Overcast
5:15 AM 44.6 °F 37.8 °F 41.0 °F 87% 29.85 in 10.0 mi SSE 15.0 mph 20.7 mph N/A   Overcast
5:35 AM 44.6 °F 38.1 °F 41.0 °F 87% 29.85 in 10.0 mi SSE 13.8 mph - N/A   Overcast
5:55 AM 44.6 °F 39.2 °F 41.0 °F 87% 29.85 in 10.0 mi SSE 10.4 mph - N/A   Overcast
6:15 AM 44.6 °F 40.2 °F 41.0 °F 87% 29.85 in 10.0 mi SSE 8.1 mph - N/A   Overcast
6:35 AM 44.6 °F 38.4 °F 42.8 °F 93% 29.85 in 10.0 mi SSE 12.7 mph - 0.01 in   Overcast
6:55 AM 44.6 °F 38.8 °F 42.8 °F 93% 29.86 in 10.0 mi South 11.5 mph - 0.01 in   Overcast
7:15 AM 44.6 °F 40.7 °F 42.8 °F 93% 29.86 in 10.0 mi South 6.9 mph - 0.01 in   Overcast
7:35 AM 44.6 °F 43.1 °F 42.8 °F 93% 29.86 in 10.0 mi SSE 3.5 mph - 0.03 in   Overcast
7:55 AM 44.6 °F 42.2 °F 42.8 °F 93% 29.86 in 10.0 mi ESE 4.6 mph - 0.04 in   Overcast
8:15 AM 44.6 °F 38.8 °F 42.8 °F 93% 29.86 in 10.0 mi SE 11.5 mph - N/A   Overcast
8:35 AM 44.6 °F 39.7 °F 42.8 °F 93% 29.86 in 10.0 mi SE 9.2 mph - N/A   Overcast
8:55 AM 46.4 °F 41.9 °F 42.8 °F 87% 29.86 in 10.0 mi SE 9.2 mph - N/A   Overcast
9:15 AM 46.4 °F 41.1 °F 42.8 °F 87% 29.86 in 10.0 mi SE 11.5 mph - N/A   Overcast
9:35 AM 46.4 °F 40.7 °F 42.8 °F 87% 29.85 in 10.0 mi SSE 12.7 mph - N/A   Mostly Cloudy
9:55 AM 46.4 °F 40.1 °F 44.6 °F 93% 29.85 in 10.0 mi SSE 15.0 mph - N/A   Mostly Cloudy
10:15 AM 46.4 °F 41.9 °F 44.6 °F 93% 29.85 in 10.0 mi SSE 9.2 mph - N/A   Mostly Cloudy
10:35 AM 48.2 °F - 44.6 °F 87% 29.85 in 10.0 mi SSE 9.2 mph 16.1 mph N/A   Overcast
10:55 AM 48.2 °F - 46.4 °F 93% 29.85 in 10.0 mi SSE 12.7 mph - N/A   Overcast
11:15 AM 48.2 °F - 44.6 °F 87% 29.83 in 10.0 mi South 12.7 mph - N/A   Mostly Cloudy
11:35 AM 48.2 °F - 46.4 °F 93% 29.82 in 10.0 mi South 10.4 mph - N/A   Mostly Cloudy
11:55 AM 48.2 °F - 44.6 °F 87% 29.81 in 10.0 mi South 10.4 mph - N/A   Overcast
12:15 PM 50.0 °F - 44.6 °F 82% 29.79 in 10.0 mi South 13.8 mph - N/A   Overcast
12:35 PM 51.8 °F - 42.8 °F 71% 29.78 in 10.0 mi South 16.1 mph - N/A   Overcast
12:55 PM 51.8 °F - 44.6 °F 76% 29.78 in 10.0 mi South 12.7 mph 19.6 mph N/A   Overcast
1:15 PM 51.8 °F - 44.6 °F 76% 29.77 in 10.0 mi South 15.0 mph 19.6 mph N/A   Overcast
1:35 PM 51.8 °F - 44.6 °F 76% 29.77 in 10.0 mi South 13.8 mph - N/A   Overcast
1:55 PM 50.0 °F - 44.6 °F 82% 29.76 in 10.0 mi South 12.7 mph - N/A   Overcast
2:15 PM 50.0 °F - 44.6 °F 82% 29.75 in 10.0 mi South 10.4 mph - N/A   Overcast
2:35 PM 50.0 °F - 44.6 °F 82% 29.75 in 10.0 mi South 9.2 mph - 0.01 in   Overcast
2:55 PM 50.0 °F - 44.6 °F 82% 29.75 in 10.0 mi South 12.7 mph - 0.02 in   Overcast
3:15 PM 48.2 °F - 44.6 °F 87% 29.74 in 10.0 mi South 10.4 mph - 0.01 in   Overcast
3:35 PM 48.2 °F - 44.6 °F 87% 29.74 in 10.0 mi SSE 10.4 mph - 0.03 in   Overcast
3:55 PM 48.2 °F - 44.6 °F 87% 29.74 in 10.0 mi SSE 12.7 mph 17.3 mph 0.04 in   Overcast
4:15 PM 48.2 °F - 44.6 °F 87% 29.73 in 10.0 mi SSE 12.7 mph - 0.02 in   Overcast
4:35 PM 48.2 °F - 44.6 °F 87% 29.73 in 10.0 mi SSE 12.7 mph - 0.04 in   Overcast
4:55 PM 48.2 °F - 44.6 °F 87% 29.72 in 10.0 mi SE 12.7 mph - 0.06 in   Overcast
5:15 PM 48.2 °F - 44.6 °F 87% 29.72 in 10.0 mi SE 15.0 mph - 0.01 in   Overcast
5:35 PM 48.2 °F - 44.6 °F 87% 29.72 in 10.0 mi SSE 12.7 mph - 0.02 in   Overcast
5:55 PM 48.2 °F - 44.6 °F 87% 29.73 in 10.0 mi SSE 15.0 mph - 0.03 in   Overcast
6:15 PM 48.2 °F - 44.6 °F 87% 29.72 in 10.0 mi SSE 12.7 mph - N/A   Overcast
6:35 PM 48.2 °F - 44.6 °F 87% 29.73 in 10.0 mi SSE 10.4 mph - N/A   Overcast
6:55 PM 48.2 °F - 44.6 °F 87% 29.71 in 10.0 mi SSE 13.8 mph 19.6 mph N/A   Overcast
7:15 PM 48.2 °F - 44.6 °F 87% 29.71 in 10.0 mi SSE 15.0 mph - N/A   Overcast
7:35 PM 48.2 °F - 44.6 °F 87% 29.71 in 10.0 mi SSE 11.5 mph - N/A   Overcast
7:55 PM 48.2 °F - 44.6 °F 87% 29.71 in 10.0 mi SSE 8.1 mph - N/A   Overcast
8:35 PM 48.2 °F - 44.6 °F 87% 29.71 in 10.0 mi SSE 11.5 mph - 0.01 in   Overcast
8:55 PM 48.2 °F - 44.6 °F 87% 29.70 in 10.0 mi SSE 16.1 mph 19.6 mph 0.01 in   Overcast
9:15 PM 48.2 °F - 44.6 °F 87% 29.70 in 10.0 mi SSE 15.0 mph 21.9 mph N/A   Mostly Cloudy
9:35 PM 48.2 °F - 44.6 °F 87% 29.69 in 10.0 mi SSE 16.1 mph - 0.01 in   Overcast
9:55 PM 48.2 °F - 46.4 °F 93% 29.70 in 10.0 mi South 12.7 mph - N/A   Unknown
10:15 PM 48.2 °F - 46.4 °F 93% 29.69 in 10.0 mi SSE 15.0 mph - 0.02 in   Overcast
10:35 PM 48.2 °F - 46.4 °F 93% 29.71 in 10.0 mi South 10.4 mph - 0.04 in   Overcast
10:55 PM 48.2 °F - 46.4 °F 93% 29.70 in 10.0 mi SSE 10.4 mph - 0.06 in   Overcast
11:15 PM 48.2 °F - 46.4 °F 93% 29.71 in 10.0 mi SSE 10.4 mph - 0.05 in   Overcast
11:35 PM 48.2 °F - 46.4 °F 93% 29.71 in 10.0 mi SSE 11.5 mph - 0.10 in   Overcast
11:55 PM 48.2 °F - 46.4 °F 93% 29.71 in 10.0 mi SSE 11.5 mph - 0.12 in   Overcast